This is the latest recevied weather packets stored in our database for station/object K7FLA. If no packets are shown the sender has not sent any weather packets the latest 10 day(s).
| Time | Temp. | Humidity | Pressure | Rain* | Wind** | Luminosity | Snow |
|---|---|---|---|---|---|---|---|
| 1777404919 | 22.78° C | 22% | 1096.7 hPa | 0 mm | - | 857 W/m² | - |
| 1777404616 | 22.78° C | 22% | 1096.6 hPa | 0 mm | - | 857 W/m² | - |
| 1777404312 | 22.78° C | 22% | 1096.5 hPa | 0 mm | - | 788 W/m² | - |
| 1777404009 | 22.78° C | 22% | 1096.6 hPa | 0 mm | - | 863 W/m² | - |
| 1777403704 | 22.78° C | 23% | 1096.8 hPa | 0 mm | - | 842 W/m² | - |
| 1777403402 | 22.78° C | 24% | 1096.9 hPa | 0 mm | - | 852 W/m² | - |
| 1777403097 | 22.78° C | 24% | 1096.8 hPa | 0 mm | - | 842 W/m² | - |
| 1777402793 | 22.22° C | 25% | 1096.7 hPa | 0 mm | - | 796 W/m² | - |
| 1777402490 | 22.22° C | 21% | 1096.8 hPa | 0 mm | - | 833 W/m² | - |
| 1777402188 | 22.22° C | 24% | 1097 hPa | 0 mm | - | 829 W/m² | - |
| 1777401882 | 22.78° C | 26% | 1096.8 hPa | 0 mm | - | 825 W/m² | - |
| 1777401582 | 22.78° C | 25% | 1097.1 hPa | 0 mm | - | 819 W/m² | - |
| 1777401278 | 22.78° C | 27% | 1097 hPa | 0 mm | - | 814 W/m² | - |
| 1777400973 | 22.78° C | 24% | 1097.1 hPa | 0 mm | - | 811 W/m² | - |
| 1777400669 | 22.78° C | 30% | 1097.1 hPa | 0 mm | - | 800 W/m² | - |
| 1777400367 | 22.78° C | 32% | 1097.1 hPa | 0 mm | - | 794 W/m² | - |
| 1777400062 | 22.22° C | 31% | 1097.3 hPa | 0 mm | - | 788 W/m² | - |
| 1777399760 | 23.33° C | 29% | 1097.3 hPa | 0 mm | - | 779 W/m² | - |
| 1777399457 | 23.89° C | 36% | 1097.4 hPa | 0 mm | - | 773 W/m² | - |
| 1777399154 | 23.89° C | 35% | 1097.5 hPa | 0 mm | - | 762 W/m² | - |
| 1777398851 | 23.33° C | 34% | 1097.7 hPa | 0 mm | - | 755 W/m² | - |
| 1777398549 | 23.33° C | 32% | 1097.6 hPa | 0 mm | - | 745 W/m² | - |
| 1777398245 | 23.33° C | 34% | 1097.6 hPa | 0 mm | - | 736 W/m² | - |
| 1777397942 | 22.78° C | 36% | 1097.7 hPa | 0 mm | - | 726 W/m² | - |
| 1777397637 | 22.78° C | 35% | 1097.8 hPa | 0 mm | - | 716 W/m² | - |
* Rain latest hour (hover to see other rain measurements)
** Current wind speed in m/s (hover to see current wind gust speed)